Flag for United Kingdom Weather past 2 weeks in Swansea, Wales, United Kingdom

Now
67 °F

Mild.


Feels Like: 67 °F
Forecast: 60 / 64 °F
Wind: 22 mph from Southeast

Location: Mumbles

Current Time: Aug 2, 2015 at 5:25:26 PM

Latest Report: Aug 2, 2015 at 4:00 PM


Visibility: N/A

Pressure: 29.89 "Hg

Humidity: 68%

Dew point: 56 °F

Location of SwanseaLocation

Historic Weather in Swansea — Graph

°F

Swansea temperature yesterday

Maximum temperature yesterday: 64 °F (at 12:00 PM)
Minimum temperature yesterday: 58 °F (at 1:00 AM)
Average temperature yesterday: 61 °F

Past Weeks' High & Low Weather Summary

 TemperatureHumidityPressure
High67 °F (Aug 2, 1:00 PM)98% (Jul 20, 11:00 AM)30.20 "Hg (Jul 20, 11:00 AM)
Low49 °F (Jul 31, 3:00 AM)50% (Jul 29, 5:00 PM)29.38 "Hg (Jul 26, 8:00 PM)
Average59 °F78%29.91 "Hg
* Reported Jul 18 4:00 PM — Aug 2 4:00 PM, Swansea, Weather by CustomWeather, © 2015

Note: Actual official high and low records may vary slightly from our data, if they occured in-between our weather recording intervals... More about our weather records

Advertising

Swansea weather history for previous 24 hours

 ConditionsComfort  
Time TempWeatherWind HumidityBarometerVisibility
4:00 PM
Sun, Aug 2
67 °FMild.22 mph68%29.89 "HgN/A
3:00 PM67 °FMild.23 mph68%29.90 "HgN/A
2:00 PM66 °FMild.20 mph67%29.94 "HgN/A
1:00 PM67 °FMild.21 mph66%29.97 "HgN/A
12:00 PM66 °FMild.22 mph68%30.00 "HgN/A
11:00 AM63 °FMild.20 mph74%30.01 "HgN/A
10:00 AM61 °FCool.16 mph77%30.01 "HgN/A
9:00 AM60 °FCool.15 mph77%30.02 "HgN/A
8:00 AM60 °FCool.18 mph81%30.03 "HgN/A
7:00 AM59 °FCool.15 mph85%30.02 "HgN/A
6:00 AM59 °FCool.17 mph85%30.02 "HgN/A
5:00 AM60 °FCool.21 mph87%30.03 "HgN/A
3:00 AM60 °FCool.17 mph85%30.03 "HgN/A
2:00 AM60 °FCool.15 mph89%30.05 "HgN/A
11:00 PM
Sat, Aug 1
60 °FCool.15 mph90%30.06 "HgN/A
9:00 PM59 °FCool.14 mph90%30.04 "HgN/A
8:00 PM60 °FCool.17 mph89%30.03 "HgN/A
6:00 PM60 °FCool.17 mph89%30.02 "HgN/A
5:00 PM64 °FMild.25 mph79%30.02 "HgN/A
Weather by CustomWeather, © 2015

See weather overviewHow to use our weather pages